DECAYED
Showing default

COSMOS 2558, 53323 (Decayed)

Orbit data source: Space-Track

COSMOS 2558, 53323 was a payload satellite owned by TS VS RF (CIS) in LEO that was launched on Mon, 01 Aug 2022 UTC via a SOYUZ-2-1V launch vehicle from the Plesetsk Missile And Space Complex (PKMTR). Payload-class satellites include a variety of spacecraft equipped with specific instruments for various scientific and technological missions. These include communications satellites like Starlink; space stations such as the ISS; scientific satellites like the Hubble; Earth observation satellites from companies like Planet Labs, Umbra, and HawkEye 360; GPS; miniature CubeSats for education and research; and military/defense satellites.

Not visible in the next 10 days
Identifier
53323, 2022-089A
Orbit
Decayed
Country
Flag of CISCIS
Related business
Manufacturer
Lavochkin
Mission
Decayed Defense Technology
Bus & Motor
KARAT-200, Unknown motor
Mass
547 kg wet, ~400 kg dry
Launch date (UTC)
2022-08-01 (4 years ago)
Launch vehicle
SOYUZ-2-1V
Launch site
Plesetsk Missile And Space Complex (PKMTR)
Object type
Payload
Rocket body
Debris
Shape & HBR
Cyl + 2 Pan, 1.6 m
Radar Cross Section
3.727 m², Large (>1 m²)

Expand to show TLE details & history
Last TLE update: 2 weeks ago

TLE from 2 weeks ago
0 COSMOS 2558
1 53323U 22089A   26255.07407622  .09214690  24429-5  34229-3 0  9995
2 53323  97.2053   4.5867 0014198 269.3733  90.5942 16.42755340231631
Epoch: 2026-09-12T01:46Z
TLE epoch observation values (Epoch: 2026-09-12T01:46:40.185Z)
Latitude
0.00003°
Longitude
-13.16904°
Altitude
161.853 km
Speed
7.809 km/s
True Right ascension
00h 18m 20s
True Declination
0° 00' 00"
Sunlit
Object was in full shadow at epoch
Visualization orbit readout
Latitude
Unknown
Longitude
Unknown
Altitude
Unknown
Speed
Unknown
Apparent Right ascension
Unknown
Apparent Declination
Unknown
Sunlit
N/A
Visualization observer readout
Local Sidereal Time
01:09:02
Azimuth
Unknown
Elevation
Unknown
Doppler factor
Unknown
Orbital elements
Apogee altitude
164.555 km
Perigee altitude
146.002 km
Semi-major axis
6,533.416 km
Eccentricity
0.00142
Inclination
97.2053°
RAAN
4.5867°
Arg. of periapsis
269.3733°
True anomaly
90.75689°
Mean anomaly
90.5942°
Eccentric anomaly
90.67554°
Mean motion
4.10991 °/min
Orbital period
87.59 mins
BSTAR
0.00034229
Loading maneuver chart data...
Computing Atmospheric mass density...
Loading historical data...
Loading historical data...
Loading historical data...
Loading historical data...
Loading historical data...
Loading historical data...
Loading historical data...
Other satellites on launch #89 in the year 2022 (2022-08-01 UTC)

Documentation

Showing up to 5 results
|